sat.trackr.live / text

‹ back to catalog

STARLINK-32696

NORAD 62310 · 2024-239K

PAYLOAD ACTIVE UNKNOWN

§ Identity

Operator
Country
US
Launch date
2024-12-13
Launch site
AFWTR
Launch vehicle
Mass (kg)
RCS (m²)

Purposes: comms

External: N2YO · Heavens-Above · Gunter

§ Orbital elements

Epoch: 2026-09-21T13:14:07.833120Z

Period
93.85 min
Inclination
53.1584°
Eccentricity
0.0001025
Mean motion
15.34412968 rev/d
Perigee alt
462.0 km
Apogee alt
463.4 km
Semi-major
6,840.8 km
B*
5.2662e-4
RAAN
0.4449°
Arg perigee
76.1346°
Mean anomaly
283.9771°
Rev number
9,942

§ Raw data

STARLINK-326961 62310U 24239K   26264.55147955  .00017465  00000+0  52662-3 0  99992 62310  53.1584   0.4449 0001025  76.1346 283.9771 15.34412968 99420

JSON: /api/v1/satellites/62310 · /tle

For live sub-satellite position, see the globe view (requires WebGL).

§ Visibility from observer

Set your observer location to see the next 7 days of passes ≥ 10°. The values pass through the URL so the page stays shareable.

No JS? Fill the form by hand. The geolocation button needs JavaScript.